User: anonymous   Login
Location: Brno
(49.2000°N, 16.6330°E)
Time: 05:04:56
(UTC+02:00)
Language:

Cosmos 1459 Rocket - Orbit

View from above orbital plane
View from above orbital plane
View from above satellite
View from above satellite

Ground track
Ground track

The orbit data is extracted from the following two-line orbital elements,

1 14059U 83042B   15211.52224725 -.00000053  00000-0 -67004-4 0  9996
2 14059 082.9699 212.3021 0043579 039.7313 070.4962 13.78519301621015
Epoch (UTC): 30 July 2015 12:32:02
Eccentricity: 0.0043579
inclination: 82.9699°
perigee height: 937 km
apogee height: 1001 km
right ascension of ascending node: 212.3021°
argument of perigee: 39.7313°
revolutions per day: 13.78519301
mean anomaly at epoch: 70.4962°
orbit number at epoch: 62101

The dashed part of the orbit path shows where the satellite is in the earth's shadow,  

DLR